Погода в Шумихе

Погода в Шумихе : погода сейчас, прогноз погоды и архив. Всё, что Вы хотите узнать о погоде в Шумихе!

Хотите узнать прогноз погоды в Шумихе? Тогда Вам сюда: Погода в Шумихе

Поиск расширенной информации на нашем сайте:

Другие новости

Новости СМИ2

Главная страница сайта

Новости сайта

02.10.2013

Напоминаем, что на нашем новом сайте вы можете получить высокодетализированные прогнозы погоды по пунктам России, СНГ и мира (включающие важные для авиации метеовеличины, такие как направление и скорость ветра, видимость, явления погоды, количество и форма облачности, нижняя и верхняя граница облачности), а также ознакомиться с разнообразными материалами по авиационной метеорологии и подборкой полезных ссылок на эту тему.

Сайт Метеоцентр.Азия посвящён разработке технологий оптимизации авиаметеорологического обслуживания, включая проектирование и перспективное создание нескольких автоматизированных авиаметеорологических систем:
- система выпуска высокодетальных прогностических карт явлений погоды для нижнего воздушного пространства по России и ближнему зарубежью;
- система верификации прогнозов TAF (выпускаемых синоптиками официальных АМСГ РФ и ближнего зарубежья) и AUTOTAF (выпускаемых сайтом Метеоцентр.Азия) - выявление ошибок, онлайн-сопоставление с фактической погодой METAR, автоматическое внесение коррективов в прогнозы при резком отклонении фактической погоды от прогноза, подсчёт оправдываемости прогнозов по элементам и в целом;
- система обработки, анализа и отображения авиаметеорологической информации для применения провайдерами метеорологической информации.

Рекомендуем: плитка под кожу

Погода в Шумихе - сегодня

Время (UTC), дата Ветер
(°,м/с) 
Видим.   Явления Облачность Т
(°С)
Тd
(°С)
f(%) Тe
(°С)
Pmin
(гПа)
dP
(гПа)
Po
(мм)
O2
(г/м3)
Тmin Tmax R s Состояние
почвы
15 22.05.17 040 (СВ) 6-10{10}  20000 м    8/3 600 м кучево-дожд., средняя, верхняя 
[Cb cap|Ac trans|Ci sp]
+13.3 +5.9 61 +12  1000.9  0.7  735  281    +22.4       
18 22.05.17 050 (СВ) 4000 м  слаб. дождь  10/10 600 м 
[Sc]
+8.1 +4.5 78 +7  1002.2  0.8  736  287           
21 22.05.17 040 (СВ) 4000 м  слаб. дождь  10/10 600 м 
[Sc]
+5.8 +4.1 89 +4  1001.4  -1  735  289           
00 23.05.17 040 (СВ) 5{11}  4000 м  слаб. дождь  10/10 600 м 
[Sc]
+5.5 +4.1 91 +3  999.2  -2.4  733  289           
03 23.05.17 030 (СВ) 5-10{14}  4000 м  слаб. дождь  10/10 600 м 
[Sc]
+5.3 +3.7 89 +3  998.5  -0.8  733  289  +5.2    16    мокрая 
06 23.05.17 020 (С) 6-11{12}  4000 м  слаб. дождь  10/10 600 м 
[Sc]
+4.7 +3.2 90 +2  999.2  0.7  733  290  +4.7         
09 23.05.17 020 (С) 6-10{15}  4000 м  слаб. дождь  10/10 600 м 
[Sc]
+3.4 +1.7 89 +1  1000.8  1.5  734  292           
12 23.05.17 020 (С) 4{15}  20000 м  {дождь}  10/10 600 м 
[Sc]
+3.9 +1.7 86 +2  1004.3  3.4  737  292           
15 23.05.17 020 (С) 3{11}  20000 м  в посл. час дождь  10/10 600 м 
[Sc]
+4.4 +1.3 80 +3  1006.1  1.8  738  293    +5.3     
18 23.05.17 тихо ()   4000 м  слаб. дождь  10/10 600 м 
[Sc]
+3.6 +2.1 90 +4  1007.6  1.3  739  294           
21 23.05.17 270 (З) 4000 м  слаб. дождь  10/10 600 м 
[Sc]
+3.6 +2.1 90 +3  1008.1  0.6  740  294           
00 24.05.17 240 (ЮЗ) 20000 м  {дождь}  9/4 600 м средняя 
[Sc|Ac trans]
+3.4 +2.2 92 +3  1008.6  0.4  740  294           
03 24.05.17 290 (З) 20000 м    9/6 600 м кучево-дожд., средняя 
[Cb cap|Ac trans]
+6.5 +3.6 82 +5  1009.2  0.8  741  291  +3      мокрая 
06 24.05.17 300 (СЗ) 20000 м    9/9 600 м кучево-дожд. 
[Cb cap]
+9.3 +2.2 61 +8  1010  741  289           
09 24.05.17 290 (З) 4{11}  20000 м    9/9 600 м кучево-дожд. 
[Cb cap]
+11.4 -2.1 39 +11  1010.7  0.9  742  287           
12 24.05.17 270 (З) 4{10}  20000 м    8/8 600 м 
[Cu med, cong]
+13.1 -2.7 33 +13  1010.7  0.1  742  286           
15 24.05.17 250 (З) 3{11}  20000 м    3/0 средняя 
[Ac trans]
+11.6 -0.4 43 +11  1011.1  0.3  742  287    +14.1       
18 24.05.17 240 (ЮЗ) 20000 м    ясно 
+7.5 +0.3 60 +7  1012.2  0.8  743  291           
21 24.05.17 250 (З) 20000 м    6/0 средняя, верхняя 
[Ac trans|Ci sp]
+8.8 +0.2 55 +7  1011.9  -0.2  743  290           
00 25.05.17 260 (З) 20000 м    3/0 верхняя 
[Ci sp]
+6.7 +1.5 69 +6  1012.9  0.8  743  292           
03 25.05.17 340 (С) 20000 м    ясно верхняя 
[Ci sp]
+10.4 +0.5 50 +10  1014.9  2.2  745  289  +5.9        влажная 
06 25.05.17 320 (СЗ) 20000 м    3/1 1000 м верхняя 
[Cu hum|Ci fib]
+14 +0.9 41 +14  1015.9  1.2  746  286           
09 25.05.17 310 (СЗ) 5{11}  20000 м    8/8 600 м 
[Cu med, cong]
+16 +1 36 +16  1016.4  0.6  747  284           
12 25.05.17 320 (СЗ) 20000 м    3/3 600 м 
[Cu hum]
+18.6 +0.4 29 +19  1016.1  0.1  746  281           
15 25.05.17 050 (СВ) 20000 м    ясно 
+16.9 -0.7 30 +17  1016.4  0.3  747  283    +19       
Время (UTC), дата Ветер
(°,м/с) 
Видим.   Явления Облачность Т
(°С)
Тd
(°С)
f(%) Тe
(°С)
Pmin
(гПа)
dP
(гПа)
Po
(мм)
O2
(г/м3)
Тmin Tmax R s Состояние
почвы

Для получения пояснительной информации подведите курсор к названию столбца.

ПОГОДА в Шумихе - архив

Всё, что Вы хотите узнать о погоде в Шумихе - удобно и подробно!

Выберите нужную дату (начиная с 1 января 2015* года) и нажмите кнопку "Найти".
Будут отображены архивные сводки погоды по пункту Шумиха, начиная с указанной даты.


Отображать данные в формате CSV (для использования в таблицах Excel)


Внимание! Наш архив погоды предназначен исключительно для личного некоммерческого использования в познавательных целях. Если Вам необходимы официальные справки о состоянии погоды (для производственных, юридических, коммерческих и т.п. целей), обращайтесь в органы Росгидромета.

*Примечание: данная дата относится к архиву по метеостанциям СССР (Россия, СНГ, Балтия).
Архив по метеостанциям Зарубежной Европы и Азии (кроме Китая) хранится 10 дней, по другим регионам земного шара (Китай, Африка, Америка, Австралия, Океания) - 1 день.

Шумиха - район местоположения метеостанции


Название, широта, долгота, высота метеостанции:
Шумиха 55.2°ш. 63.3°д. 178 м над ур. моря [Российская Федерация]

Дополнительная информация

В oтличие oт бoльшинства пoгoдных сайтoв мы публикуем пoдрoбную метеoинфoрмацию в детальнoм прoфессиoнальнoм фoрмате.

Характеристики температуры и влажнoсти вoздуха измеряются на высoте 2 м в тени вдали oт зданий и деревьев.
Скoрoсть ветра измеряется на высoте 10 м (на урoвне рoста челoвека скoрoсть ветра ниже в 1.5-2 раза). Если метеoстанция нахoдится в гoрoде или в лесу, тo скoрoсть ветра занижена на 2-4 м/с пo сравнению с oткрытым местoм. Скoрoсть ветра над акватoриями крупных рек и oзёр, а также на вершинах хoлмoв на 2-5 м/с выше, чем в oбычных услoвиях.
Атмoсфернoе давление в разных тoчках местнoсти мoжет значительнo oтличаться oт давления на метеoстанции, в зависимoсти oт услoвий рельефа (при пoдъёме на 10 м давление пoнижается примернo на 1 мм рт.ст.).